Time,TemperatureF,DewpointF,PressureIn,WindDirection,WindDirectionDegrees,WindSpeedMPH,WindSpeedGustMPH,Humidity,HourlyPrecipIn,Conditions,Clouds,dailyrainin,SoftwareType,DateUTC
2013-03-24 00:02:00,30.0,28.0,29.97,NE,49,1.0,8.0,93,0.00,,,0.08,,2013-03-24 05:02:00,
2013-03-24 00:12:00,30.0,28.0,29.97,NE,49,1.0,8.0,93,0.00,,,0.08,,2013-03-24 05:12:00,
2013-03-24 00:22:00,30.0,28.0,29.97,NNE,13,1.0,10.0,93,0.00,,,0.08,,2013-03-24 05:22:00,
2013-03-24 00:32:00,29.0,27.0,29.98,NNE,31,1.0,7.0,93,0.00,,,0.08,,2013-03-24 05:32:00,
2013-03-24 00:42:00,29.0,27.0,29.98,NNE,31,1.0,7.0,93,0.00,,,0.08,,2013-03-24 05:42:00,
2013-03-24 00:52:00,29.0,27.0,29.98,NNE,15,2.0,9.0,93,0.00,,,0.08,,2013-03-24 05:52:00,
2013-03-24 01:02:00,29.0,27.0,29.98,NW,307,5.0,9.0,93,0.00,,,0.08,,2013-03-24 06:02:00,
2013-03-24 01:12:00,29.0,27.0,29.98,NW,307,5.0,9.0,93,0.00,,,0.08,,2013-03-24 06:12:00,
2013-03-24 01:22:00,29.0,27.0,29.99,North,5,4.0,12.0,93,0.00,,,0.08,,2013-03-24 06:22:00,
2013-03-24 01:32:00,29.0,27.0,29.99,NE,36,1.0,12.0,93,0.00,,,0.08,,2013-03-24 06:32:00,
2013-03-24 01:42:00,29.0,27.0,29.99,NE,36,1.0,12.0,93,0.00,,,0.08,,2013-03-24 06:42:00,
2013-03-24 01:52:00,29.0,27.0,29.99,NNW,336,5.0,11.0,93,0.00,,,0.08,,2013-03-24 06:52:00,
2013-03-24 02:02:00,29.0,27.0,29.99,NNE,30,5.0,12.0,93,0.00,,,0.08,,2013-03-24 07:02:00,
2013-03-24 02:12:00,29.0,27.0,29.99,NNE,30,5.0,12.0,93,0.00,,,0.08,,2013-03-24 07:12:00,
2013-03-24 02:22:00,28.0,26.0,29.99,North,360,4.0,13.0,93,0.00,,,0.08,,2013-03-24 07:22:00,
2013-03-24 02:32:00,28.0,26.0,29.99,NNE,18,5.0,10.0,93,0.00,,,0.08,,2013-03-24 07:32:00,
2013-03-24 02:42:00,28.0,26.0,29.99,NNE,18,5.0,10.0,93,0.00,,,0.08,,2013-03-24 07:42:00,
2013-03-24 02:52:00,28.0,26.0,29.99,North,360,3.0,13.0,93,0.00,,,0.08,,2013-03-24 07:52:00,
2013-03-24 03:12:00,28.0,26.0,29.99,NW,316,4.0,10.0,93,0.00,,,0.08,,2013-03-24 08:12:00,
2013-03-24 03:22:00,28.0,26.0,29.99,NNE,19,5.0,11.0,93,0.00,,,0.08,,2013-03-24 08:22:00,
2013-03-24 03:32:00,28.0,26.0,29.99,NNW,331,4.0,15.0,93,0.00,,,0.08,,2013-03-24 08:32:00,
2013-03-24 03:42:00,28.0,26.0,29.99,NNW,331,4.0,15.0,93,0.00,,,0.08,,2013-03-24 08:42:00,
2013-03-24 03:52:00,28.0,26.0,29.99,NNW,327,6.0,14.0,93,0.00,,,0.08,,2013-03-24 08:52:00,
2013-03-24 04:02:00,28.0,26.0,29.98,North,10,7.0,14.0,93,0.00,,,0.08,,2013-03-24 09:02:00,
2013-03-24 04:12:00,28.0,26.0,29.98,North,10,7.0,14.0,93,0.00,,,0.08,,2013-03-24 09:12:00,
2013-03-24 04:22:00,28.0,26.0,29.98,NNW,342,5.0,12.0,93,0.00,,,0.08,,2013-03-24 09:22:00,
2013-03-24 04:33:00,27.0,25.0,29.98,NW,316,5.0,15.0,93,0.00,,,0.08,,2013-03-24 09:33:00,
2013-03-24 04:42:00,27.0,25.0,29.98,NW,316,5.0,15.0,93,0.00,,,0.08,,2013-03-24 09:42:00,
2013-03-24 04:52:00,27.0,25.0,29.98,North,349,7.0,15.0,93,0.00,,,0.08,,2013-03-24 09:52:00,
2013-03-24 05:03:00,27.0,25.0,29.99,NW,323,9.0,18.0,93,0.00,,,0.08,,2013-03-24 10:03:00,
2013-03-24 05:12:00,27.0,25.0,29.99,NW,323,9.0,18.0,93,0.00,,,0.08,,2013-03-24 10:12:00,
2013-03-24 05:22:00,26.0,24.0,29.99,North,360,8.0,16.0,93,0.00,,,0.08,,2013-03-24 10:22:00,
2013-03-24 05:33:00,26.0,24.0,30.00,NNE,27,7.0,19.0,93,0.00,,,0.08,,2013-03-24 10:33:00,
2013-03-24 05:42:00,26.0,24.0,30.00,NNE,27,7.0,19.0,93,0.00,,,0.08,,2013-03-24 10:42:00,
2013-03-24 05:52:00,25.0,23.0,30.00,NE,34,5.0,19.0,92,0.00,,,0.08,,2013-03-24 10:52:00,
2013-03-24 06:03:00,25.0,23.0,30.01,North,351,8.0,17.0,92,0.00,,,0.08,,2013-03-24 11:03:00,
2013-03-24 06:12:00,25.0,23.0,30.01,North,351,8.0,17.0,92,0.00,,,0.08,,2013-03-24 11:12:00,
2013-03-24 06:22:00,25.0,23.0,30.01,NW,314,5.0,17.0,92,0.00,,,0.08,,2013-03-24 11:22:00,
2013-03-24 06:33:00,24.0,22.0,30.02,NW,320,6.0,16.0,92,0.00,,,0.08,,2013-03-24 11:33:00,
2013-03-24 06:42:00,24.0,22.0,30.02,NW,320,6.0,16.0,92,0.00,,,0.08,,2013-03-24 11:42:00,
2013-03-24 06:52:00,24.0,22.0,30.02,NNW,328,4.0,17.0,92,0.00,,,0.08,,2013-03-24 11:52:00,
2013-03-24 07:02:00,24.0,22.0,30.03,NNW,336,8.0,20.0,91,0.00,,,0.08,,2013-03-24 12:02:00,
2013-03-24 07:12:00,24.0,22.0,30.03,NNW,336,8.0,20.0,91,0.00,,,0.08,,2013-03-24 12:12:00,
2013-03-24 07:22:00,24.0,22.0,30.03,NNW,328,7.0,15.0,91,0.00,,,0.08,,2013-03-24 12:22:00,
2013-03-24 07:32:00,23.0,21.0,30.04,North,11,7.0,16.0,91,0.00,,,0.08,,2013-03-24 12:32:00,
2013-03-24 07:42:00,23.0,21.0,30.04,North,11,7.0,16.0,91,0.00,,,0.08,,2013-03-24 12:42:00,
2013-03-24 07:52:00,23.0,21.0,30.04,North,351,5.0,16.0,91,0.00,,,0.08,,2013-03-24 12:52:00,
2013-03-24 08:02:00,23.0,21.0,30.02,NNE,13,5.0,14.0,91,0.00,,,0.08,,2013-03-24 13:02:00,
2013-03-24 08:12:00,23.0,21.0,30.02,NNE,13,5.0,14.0,91,0.00,,,0.08,,2013-03-24 13:12:00,
2013-03-24 08:22:00,23.0,21.0,30.03,NNW,329,5.0,12.0,91,0.00,,,0.08,,2013-03-24 13:22:00,
2013-03-24 08:32:00,23.0,21.0,30.03,North,350,7.0,19.0,90,0.00,,,0.08,,2013-03-24 13:32:00,
2013-03-24 08:42:00,23.0,21.0,30.03,North,350,7.0,19.0,90,0.00,,,0.08,,2013-03-24 13:42:00,
2013-03-24 08:52:00,23.0,20.0,30.03,NW,326,7.0,14.0,89,0.00,,,0.08,,2013-03-24 13:52:00,
2013-03-24 09:02:00,23.0,20.0,30.04,NW,321,7.0,13.0,89,0.00,,,0.08,,2013-03-24 14:02:00,
2013-03-24 09:12:00,23.0,20.0,30.04,NW,321,7.0,13.0,89,0.00,,,0.08,,2013-03-24 14:12:00,
2013-03-24 09:22:00,24.0,21.0,30.04,NNE,16,9.0,15.0,88,0.00,,,0.08,,2013-03-24 14:22:00,
2013-03-24 09:32:00,24.0,21.0,30.05,North,351,8.0,19.0,87,0.00,,,0.08,,2013-03-24 14:32:00,
2013-03-24 09:42:00,24.0,21.0,30.05,North,351,8.0,19.0,87,0.00,,,0.08,,2013-03-24 14:42:00,
2013-03-24 09:52:00,24.0,21.0,30.05,NNW,346,5.0,14.0,87,0.00,,,0.08,,2013-03-24 14:52:00,
2013-03-24 10:02:00,24.0,20.0,30.06,NNE,12,8.0,18.0,86,0.00,,,0.08,,2013-03-24 15:02:00,
2013-03-24 10:12:00,24.0,20.0,30.06,NNE,12,8.0,18.0,86,0.00,,,0.08,,2013-03-24 15:12:00,
2013-03-24 10:22:00,25.0,21.0,30.06,NNE,15,9.0,16.0,84,0.00,,,0.08,,2013-03-24 15:22:00,
2013-03-24 10:33:00,26.0,21.0,30.06,NNW,327,9.0,16.0,82,0.00,,,0.08,,2013-03-24 15:33:00,
2013-03-24 10:43:00,26.0,21.0,30.06,NNW,327,9.0,16.0,82,0.00,,,0.08,,2013-03-24 15:43:00,
2013-03-24 10:53:00,26.0,21.0,30.07,NNW,332,8.0,18.0,81,0.00,,,0.08,,2013-03-24 15:53:00,
2013-03-24 11:03:00,26.0,20.0,30.08,North,350,10.0,19.0,78,0.00,,,0.08,,2013-03-24 16:03:00,
2013-03-24 11:12:00,26.0,20.0,30.08,North,350,10.0,19.0,78,0.00,,,0.08,,2013-03-24 16:12:00,
2013-03-24 11:22:00,26.0,19.0,30.08,North,360,10.0,22.0,76,0.00,,,0.08,,2013-03-24 16:22:00,
2013-03-24 11:33:00,27.0,20.0,30.09,NW,318,8.0,15.0,76,0.00,,,0.08,,2013-03-24 16:33:00,
2013-03-24 11:42:00,27.0,20.0,30.09,NW,318,8.0,15.0,76,0.00,,,0.08,,2013-03-24 16:42:00,
2013-03-24 11:52:00,28.0,20.0,30.09,NNW,327,9.0,18.0,73,0.02,,,0.10,,2013-03-24 16:52:00,
2013-03-24 12:02:00,28.0,20.0,30.09,North,351,8.0,18.0,72,0.05,,,0.13,,2013-03-24 17:02:00,
2013-03-24 12:12:00,28.0,20.0,30.09,North,351,8.0,18.0,72,0.05,,,0.13,,2013-03-24 17:12:00,
2013-03-24 12:23:00,29.0,21.0,30.09,NNE,27,7.0,17.0,71,0.07,,,0.15,,2013-03-24 17:23:00,
2013-03-24 12:33:00,29.0,21.0,30.09,NW,325,9.0,18.0,71,0.09,,,0.17,,2013-03-24 17:33:00,
2013-03-24 12:42:00,29.0,21.0,30.09,NW,325,9.0,18.0,71,0.09,,,0.17,,2013-03-24 17:42:00,
2013-03-24 12:52:00,29.0,19.0,30.10,NW,313,11.0,18.0,65,0.09,,,0.19,,2013-03-24 17:52:00,
2013-03-24 13:03:00,30.0,20.0,30.10,North,351,8.0,19.0,65,0.09,,,0.22,,2013-03-24 18:03:00,
2013-03-24 13:12:00,30.0,20.0,30.10,North,351,8.0,19.0,65,0.09,,,0.22,,2013-03-24 18:12:00,
2013-03-24 13:22:00,31.0,20.0,30.09,NNW,344,11.0,17.0,64,0.09,,,0.24,,2013-03-24 18:22:00,
2013-03-24 13:32:00,30.0,19.0,30.09,NW,323,9.0,21.0,64,0.08,,,0.25,,2013-03-24 18:32:00,
2013-03-24 13:43:00,30.0,19.0,30.09,NW,323,9.0,21.0,64,0.08,,,0.25,,2013-03-24 18:43:00,
2013-03-24 13:52:00,31.0,20.0,30.10,North,350,11.0,20.0,63,0.07,,,0.26,,2013-03-24 18:52:00,
2013-03-24 14:02:00,31.0,20.0,30.09,NNW,336,12.0,21.0,62,0.06,,,0.28,,2013-03-24 19:02:00,
2013-03-24 14:12:00,31.0,20.0,30.09,NNW,336,12.0,21.0,62,0.06,,,0.28,,2013-03-24 19:12:00,
2013-03-24 14:22:00,31.0,19.0,30.09,NW,314,10.0,16.0,61,0.06,,,0.29,,2013-03-24 19:22:00,
2013-03-24 14:32:00,32.0,20.0,30.09,NNW,336,11.0,20.0,60,0.06,,,0.31,,2013-03-24 19:32:00,
2013-03-24 14:42:00,32.0,20.0,30.09,NNW,336,11.0,20.0,60,0.06,,,0.31,,2013-03-24 19:42:00,
2013-03-24 14:52:00,32.0,20.0,30.09,NNE,29,12.0,19.0,60,0.06,,,0.29,,2013-03-24 19:52:00,
2013-03-24 15:02:00,33.0,19.0,30.09,NW,322,11.0,19.0,57,0.06,,,0.30,,2013-03-24 20:02:00,
2013-03-24 15:12:00,33.0,19.0,30.09,NW,322,11.0,19.0,57,0.06,,,0.30,,2013-03-24 20:12:00,
2013-03-24 15:22:00,34.0,20.0,30.08,NW,325,8.0,20.0,57,0.05,,,0.31,,2013-03-24 20:22:00,
2013-03-24 15:32:00,35.0,22.0,30.08,NNW,347,9.0,15.0,58,0.04,,,0.32,,2013-03-24 20:32:00,
2013-03-24 15:42:00,35.0,22.0,30.08,NNW,347,9.0,15.0,58,0.04,,,0.32,,2013-03-24 20:42:00,
2013-03-24 15:52:00,34.0,21.0,30.08,NNW,339,12.0,17.0,58,0.04,,,0.32,,2013-03-24 20:52:00,
2013-03-24 16:02:00,34.0,20.0,30.07,North,360,8.0,17.0,56,0.04,,,0.33,,2013-03-24 21:02:00,
2013-03-24 16:12:00,34.0,20.0,30.07,North,360,8.0,17.0,56,0.04,,,0.33,,2013-03-24 21:12:00,
2013-03-24 16:22:00,35.0,23.0,30.07,NNW,328,10.0,21.0,60,0.04,,,0.34,,2013-03-24 21:22:00,
2013-03-24 16:33:00,35.0,21.0,30.07,North,360,9.0,20.0,57,0.04,,,0.35,,2013-03-24 21:33:00,
2013-03-24 16:43:00,35.0,21.0,30.07,North,360,9.0,20.0,57,0.04,,,0.35,,2013-03-24 21:43:00,
2013-03-24 16:52:00,35.0,20.0,30.06,NNE,29,10.0,18.0,55,0.03,,,0.34,,2013-03-24 21:52:00,
2013-03-24 17:03:00,36.0,22.0,30.06,NW,322,9.0,19.0,56,0.03,,,0.35,,2013-03-24 22:03:00,
2013-03-24 17:13:00,36.0,22.0,30.06,NW,322,9.0,19.0,56,0.03,,,0.35,,2013-03-24 22:13:00,
2013-03-24 17:23:00,36.0,22.0,30.06,North,5,10.0,19.0,56,0.02,,,0.35,,2013-03-24 22:23:00,
2013-03-24 17:33:00,36.0,22.0,30.06,NNW,333,9.0,20.0,56,0.01,,,0.35,,2013-03-24 22:33:00,
2013-03-24 17:43:00,36.0,22.0,30.06,NNW,333,9.0,20.0,56,0.01,,,0.35,,2013-03-24 22:43:00,
2013-03-24 17:52:00,34.0,20.0,30.07,NW,313,9.0,16.0,57,0.02,,,0.34,,2013-03-24 22:52:00,
2013-03-24 18:03:00,36.0,22.0,30.07,NNW,331,9.0,17.0,56,0.01,,,0.34,,2013-03-24 23:03:00,
2013-03-24 18:12:00,36.0,22.0,30.07,NNW,331,9.0,17.0,56,0.01,,,0.34,,2013-03-24 23:12:00,
2013-03-24 18:22:00,37.0,23.0,30.07,NW,326,9.0,18.0,56,0.01,,,0.34,,2013-03-24 23:22:00,
2013-03-24 18:32:00,36.0,22.0,30.07,North,351,10.0,19.0,56,0.02,,,0.35,,2013-03-24 23:32:00,
2013-03-24 18:42:00,36.0,22.0,30.07,North,351,10.0,19.0,56,0.02,,,0.35,,2013-03-24 23:42:00,
2013-03-24 18:52:00,35.0,21.0,30.07,NNW,331,11.0,17.0,57,0.01,,,0.34,,2013-03-24 23:52:00,
2013-03-24 19:02:00,35.0,22.0,30.07,NW,321,9.0,17.0,58,0.01,,,0.34,,2013-03-25 00:02:00,
2013-03-24 19:12:00,35.0,22.0,30.07,NW,321,9.0,17.0,58,0.01,,,0.34,,2013-03-25 00:12:00,
2013-03-24 19:22:00,35.0,23.0,30.08,WNW,300,9.0,14.0,61,0.01,,,0.34,,2013-03-25 00:22:00,
2013-03-24 19:32:00,34.0,23.0,30.08,NW,309,6.0,17.0,64,0.00,,,0.34,,2013-03-25 00:32:00,
2013-03-24 19:42:00,34.0,23.0,30.08,NW,309,6.0,17.0,64,0.00,,,0.34,,2013-03-25 00:42:00,
2013-03-24 19:52:00,33.0,23.0,30.08,WNW,300,7.0,12.0,65,0.00,,,0.34,,2013-03-25 00:52:00,
2013-03-24 20:02:00,32.0,22.0,30.08,NNW,340,3.0,12.0,67,0.00,,,0.34,,2013-03-25 01:02:00,
2013-03-24 20:12:00,32.0,22.0,30.08,NNW,340,3.0,12.0,67,0.00,,,0.34,,2013-03-25 01:12:00,
2013-03-24 20:22:00,32.0,23.0,30.08,NW,322,3.0,9.0,68,0.00,,,0.34,,2013-03-25 01:22:00,
2013-03-24 20:32:00,31.0,22.0,30.08,WNW,290,0.0,6.0,69,0.00,,,0.34,,2013-03-25 01:32:00,
2013-03-24 20:42:00,31.0,22.0,30.08,WNW,290,0.0,6.0,69,0.00,,,0.34,,2013-03-25 01:42:00,
2013-03-24 20:52:00,31.0,23.0,30.09,WNW,295,1.0,6.0,71,0.00,,,0.34,,2013-03-25 01:52:00,
2013-03-24 21:02:00,30.0,22.0,30.09,WNW,292,1.0,6.0,72,0.00,,,0.34,,2013-03-25 02:02:00,
2013-03-24 21:12:00,30.0,22.0,30.09,WNW,292,1.0,6.0,72,0.00,,,0.34,,2013-03-25 02:12:00,
2013-03-24 21:22:00,30.0,22.0,30.08,WNW,290,1.0,6.0,73,0.00,,,0.34,,2013-03-25 02:22:00,
2013-03-24 21:32:00,30.0,22.0,30.09,NW,319,2.0,9.0,72,0.00,,,0.34,,2013-03-25 02:32:00,
2013-03-24 21:42:00,30.0,22.0,30.09,NW,319,2.0,9.0,72,0.00,,,0.34,,2013-03-25 02:42:00,
2013-03-24 21:52:00,30.0,22.0,30.09,NW,305,3.0,10.0,72,0.00,,,0.34,,2013-03-25 02:52:00,
2013-03-24 22:02:00,30.0,22.0,30.09,NW,314,2.0,11.0,73,0.00,,,0.34,,2013-03-25 03:02:00,
2013-03-24 22:13:00,30.0,22.0,30.09,NW,314,2.0,11.0,73,0.00,,,0.34,,2013-03-25 03:13:00,
2013-03-24 22:22:00,30.0,22.0,30.10,NNW,336,5.0,9.0,73,0.00,,,0.34,,2013-03-25 03:22:00,
2013-03-24 22:33:00,30.0,22.0,30.11,NW,314,4.0,9.0,73,0.00,,,0.34,,2013-03-25 03:33:00,
2013-03-24 22:42:00,30.0,23.0,30.12,NNE,25,1.0,9.0,75,0.00,,,0.34,,2013-03-25 03:42:00,
2013-03-24 22:52:00,30.0,23.0,30.12,NNE,25,1.0,9.0,75,0.00,,,0.34,,2013-03-25 03:52:00,
2013-03-24 23:02:00,30.0,23.0,30.12,NNW,330,0.0,6.0,76,0.00,,,0.34,,2013-03-25 04:02:00,
2013-03-24 23:12:00,30.0,23.0,30.12,NNW,330,0.0,6.0,76,0.00,,,0.34,,2013-03-25 04:12:00,
2013-03-24 23:22:00,29.0,22.0,30.12,NNW,330,2.0,5.0,76,0.00,,,0.34,,2013-03-25 04:22:00,
2013-03-24 23:33:00,29.0,23.0,30.13,NNW,333,0.0,1.0,77,0.00,,,0.34,,2013-03-25 04:33:00,
2013-03-24 23:43:00,29.0,23.0,30.13,NNW,333,0.0,1.0,77,0.00,,,0.34,,2013-03-25 04:43:00,
2013-03-24 23:52:00,28.0,22.0,30.13,NNW,333,0.0,1.0,78,0.00,,,0.34,,2013-03-25 04:52:00,